EW7757 Weather Reports


Display with metric or nautical units.
time (UTC)temp
F
wind
direction
speed
MPH
gust
MPH
rain 1hr
in
rain 24hr
in
rain mn
in
humidity
%
barometer
mb
20260503224527 57 337 4.0 10.0 0.02 0.07 0.00 94 1011.7
20260503223023 57 289 7.0 19.0 0.02 0.07 0.00 94 1011.7
20260503221522 57 335 2.0 11.0 0.01 0.06 0.06 94 1011.8
20260503220021 57 356 2.0 11.0 0.00 0.06 0.06 94 1011.6
20260503214536 57 283 3.0 9.0 0.00 0.06 0.06 94 1011.5
20260503213019 57 343 1.0 10.0 0.00 0.06 0.06 94 1011.5
20260503211518 57 335 2.0 10.0 0.00 0.06 0.06 94 1011.6
20260503210020 57 312 2.0 16.0 0.00 0.06 0.06 94 1011.3
20260503204519 57 352 3.0 8.0 0.00 0.06 0.06 94 1011.0
20260503203018 57 14 2.0 10.0 0.00 0.06 0.06 94 1010.9
20260503201517 57 340 2.0 11.0 0.00 0.06 0.06 95 1011.0
20260503200017 57 6 4.0 11.0 0.00 0.06 0.06 95 1010.9
20260503194517 57 300 2.0 7.0 0.00 0.06 0.06 95 1011.0
20260503193017 56 326 2.0 4.0 0.00 0.06 0.06 95 1010.9
20260503191518 56 279 1.0 4.0 0.00 0.06 0.06 95 1011.0
20260503190014 56 298 2.0 6.0 0.00 0.06 0.06 95 1011.1
20260503184513 56 305 0.0 2.0 0.00 0.06 0.06 94 1011.3
20260503183013 56 286 0.0 4.0 0.00 0.06 0.06 94 1011.4
20260503181511 56 308 2.0 7.0 0.00 0.06 0.06 94 1011.6
20260503180012 56 341 2.0 8.0 0.00 0.06 0.06 94 1011.5
20260503174515 56 339 0.0 6.0 0.00 0.06 0.06 94 1011.7
20260503173013 56 330 1.0 7.0 0.00 0.06 0.06 94 1011.9
20260503171509 56 314 2.0 7.0 0.00 0.06 0.06 94 1011.9
20260503150110 58 281 1.0 9.0 0.06 0.06 0.06 93 1012.9